Content
SEND FEEDBACK

Daily
Averages
Monthly
Summary
United Kingdom

LONDON, ENGLAND


Home > Europe > United Kingdom > England
Elevation: 203 feet     Latitude: 51 09N     Longitude: 000 11W

WEATHER
 
SELECT A DAY
Number of Records: 293,936;   Date Range: 7/1/96 - 8/30/14
 
SHARE

PRINT THIS DATA

[ ← Previous Day ]
WEATHER ALMANAC - JULY 6, 2013
[ Next Day → ]
[ °C ]   °F
Weather ElementAverageHighLow
Temperature66.2 °F78.8 °F (3:50 pm)50 °F (4:50 am)
Dewpoint55.3 °F60.8 °F (6:50 pm)48.2 °F (4:50 am)
Humidity70.2 %94 % (1:20 am)44 % (3:50 pm)
Barometer30.40 in30.42 in (12:50 am)30.36 in (2:50 pm)
Wind Speed3.7 mph8.1 mph (6:50 pm)
Weather ElementAverage
Visibility5.9 mi
Wind DirectionENE (55.7 °)

Weather ElementTotal
Precipitation---
Heating Degree Days0.6 (Base 65)
Growing Degree Days14.4 (Base 50)
Averaged from 47 records on July 6, 2013
WEATHER CONDITIONS BREAKOUT
WIND DIRECTION BREAKOUT
WEATHER BY HOUR - JULY 6, 2013
[ °C ]   °F
Local TimeTemperatureDewpointHumidityBarometerVisibilityWind DirectionWind SpeedGust SpeedPrecipitationEventsConditions
12:50 AM55.4 °F51.8 °F88 %30.42 inEast (90°)3.5 mphClear
1:20 AM53.6 °F51.8 °F94 %30.42 inEast (90°)3.5 mphClear
1:50 AM55.4 °F51.8 °F88 %30.42 in5.6 miEast (80°)2.3 mph
2:20 AM53.6 °F50.0 °F88 %30.42 inEast (90°)4.6 mphClear
2:50 AM53.6 °F51.8 °F94 %30.42 inEast (80°)2.3 mphClear
3:20 AM51.8 °F50.0 °F94 %30.42 inEast (90°)3.5 mphClear
3:50 AM51.8 °F50.0 °F94 %30.42 inCalmClear
4:20 AM51.8 °F50.0 °F94 %30.42 inCalmClear
4:50 AM50.0 °F48.2 °F94 %30.42 inENE (70°)3.5 mphClear
5:20 AM50.0 °F48.2 °F94 %30.42 inEast (80°)3.5 mphClear
5:50 AM50.0 °F48.2 °F94 %30.42 in6.2 miENE (70°)2.3 mphPartly Cloudy
6:20 AM51.8 °F50.0 °F94 %30.42 in6.2 miEast (90°)3.5 mphPartly Cloudy
6:50 AM53.6 °F51.8 °F94 %30.42 in6.2 miEast (100°)2.3 mphPartly Cloudy
7:20 AM57.2 °F51.8 °F82 %30.42 in6.2 miEast (80°)4.6 mphPartly Cloudy
7:50 AM60.8 °F51.8 °F72 %30.42 in6.2 miVariable3.5 mphPartly Cloudy
8:20 AM62.6 °F53.6 °F72 %30.42 in6.2 miEast (80°)4.6 mphPartly Cloudy
8:50 AM64.4 °F55.4 °F73 %30.42 inVariable3.5 mphClear
9:20 AM66.2 °F55.4 °F68 %30.42 inVariable3.5 mphClear
9:50 AM68.0 °F57.2 °F68 %30.42 inVariable2.3 mphClear
10:20 AM69.8 °F57.2 °F64 %30.42 inVariable2.3 mphClear
10:50 AM71.6 °F57.2 °F60 %30.42 in6.2 miVariable2.3 mphPartly Cloudy
11:20 AM71.6 °F57.2 °F60 %30.42 in6.2 miVariable3.5 mphPartly Cloudy
11:50 AM73.4 °F57.2 °F57 %30.39 in6.2 miNNE (30°)4.6 mphPartly Cloudy
12:20 PM71.6 °F57.2 °F60 %30.39 in6.2 miVariable4.6 mphPartly Cloudy
12:50 PM75.2 °F57.2 °F53 %30.39 in6.2 miENE (70°)4.6 mphPartly Cloudy
1:20 PM75.2 °F55.4 °F50 %30.39 in6.2 miVariable3.5 mphPartly Cloudy
1:50 PM77.0 °F57.2 °F50 %30.39 in6.2 miVariable5.8 mphPartly Cloudy
2:20 PM77.0 °F57.2 °F50 %30.39 in6.2 miEast (80°)5.8 mphPartly Cloudy
2:50 PM77.0 °F55.4 °F47 %30.36 in6.2 miVariable4.6 mphPartly Cloudy
3:20 PM77.0 °F55.4 °F47 %30.36 inESE (110°)6.9 mphClear
3:50 PM78.8 °F55.4 °F44 %30.36 inVariable4.6 mphClear
4:20 PM78.8 °F55.4 °F44 %30.36 inVariable5.8 mphClear
4:50 PM78.8 °F57.2 °F47 %30.36 inVariable4.6 mphClear
5:20 PM78.8 °F59.0 °F51 %30.36 inEast (80°)5.8 mphClear
5:50 PM77.0 °F57.2 °F50 %30.36 inEast (80°)5.8 mphClear
6:20 PM75.2 °F57.2 °F53 %30.36 inEast (80°)4.6 mphClear
6:50 PM77.0 °F60.8 °F57 %30.36 inSouth (190°)8.1 mphClear
7:20 PM75.2 °F60.8 °F61 %30.36 in6.2 miSouth (190°)5.8 mphPartly Cloudy
7:50 PM75.2 °F60.8 °F61 %30.36 in6.2 miSSW (210°)6.9 mphPartly Cloudy
8:20 PM73.4 °F60.8 °F65 %30.39 inSW (230°)6.9 mphClear
8:50 PM71.6 °F59.0 °F64 %30.39 inVariable3.5 mphClear
9:20 PM69.8 °F59.0 °F68 %30.39 inVariable3.5 mphClear
9:50 PM68.0 °F59.0 °F73 %30.42 inVariable2.3 mphClear
10:20 PM66.2 °F59.0 °F78 %30.42 inSouth (180°)2.3 mphClear
10:50 PM64.4 °F59.0 °F83 %30.42 in5.0 miCalm
11:20 PM64.4 °F59.0 °F83 %30.42 in4.3 miCalm
11:50 PM62.6 °F57.2 °F82 %30.42 in3.7 miCalm
Hourly data recorded from EGKK, located miles away from London, England







STORIES FROM OUR PARTNERS